{"data":{"norad_id":68302,"epoch":"2026-09-19T15:43:32.625408Z","epoch_age_seconds":124292,"freshness":"FRESH","line1":"1 68302U 26057J   26262.65523872  .00017906  00000+0  55647-3 0  9997","line2":"2 68302  97.2867  28.0591 0002616  89.0002 271.1540 15.33396097 28386","mean_motion":15.33396097,"eccentricity":0.0002616,"inclination_deg":97.2867,"raan_deg":28.0591,"arg_perigee_deg":89.0002,"mean_anomaly_deg":271.154,"bstar":0.00055647,"rev_number":2838,"period_min":93.909199509329,"perigee_km":463.89833446916,"apogee_km":467.47902406455,"semimajor_km":6843.8256792669,"source":"CELESTRAK","updated_at":"2026-09-20T09:00:43.855143Z"}}